GW5117 Weather Reports


time (UTC)temp
C
wind
direction
speed
KPH
gust
KPH
rain 1hr
cm
rain 24hr
cm
rain mn
cm
humidity
%
barometer
mb
20260505152304 23 144 4.8 14.5 0.00 0.00 0.00 47 1013.9
20260505151756 23 46 0.0 4.8 0.00 0.00 0.00 50 1013.7
20260505151253 23 136 1.6 11.3 0.00 0.00 0.00 49 1013.7
20260505150750 22 146 1.6 9.7 0.00 0.00 0.00 51 1013.8
20260505150247 23 314 1.6 9.7 0.00 0.00 0.00 49 1013.8
20260505140217 22 99 0.0 9.7 0.00 0.00 0.00 56 1013.6
20260505130141 18 130 1.6 6.4 0.00 0.00 0.00 62 1014.1
20260505124625 17 280 0.0 3.2 0.00 0.00 0.00 69 1013.9
20260505124122 17 191 3.2 3.2 0.00 0.00 0.00 70 1014.0
20260505123618 16 208 0.0 1.6 0.00 0.00 0.00 77 1013.9
20260505123115 16 183 0.0 0.0 0.00 0.00 0.00 79 1013.7
20260505122611 15 163 0.0 0.0 0.00 0.00 0.00 81 1013.8
20260505122109 14 155 0.0 4.8 0.00 0.00 0.00 86 1013.6
20260505121604 13 157 0.0 0.0 0.00 0.00 0.00 91 1013.6
20260505121101 12 152 0.0 0.0 0.00 0.00 0.00 93 1013.5
20260505120557 12 160 0.0 0.0 0.00 0.00 0.00 95 1013.5
20260505120053 12 161 0.0 0.0 0.00 0.00 0.00 96 1013.5
20260505115547 11 181 0.0 0.0 0.00 0.00 0.00 96 1013.7
20260505115045 11 184 0.0 0.0 0.00 0.00 0.00 97 1013.6
20260505114542 11 188 0.0 0.0 0.00 0.00 0.00 97 1013.5
20260505114039 11 188 0.0 0.0 0.00 0.00 0.00 98 1013.6
20260505113536 11 189 0.0 0.0 0.00 0.00 0.00 98 1013.7
20260505113032 11 190 0.0 0.0 0.00 0.00 0.00 98 1013.5
20260505112529 10 183 0.0 0.0 0.00 0.00 0.00 98 1013.5
20260505112027 10 184 0.0 0.0 0.00 0.00 0.00 98 1013.4
20260505111525 10 184 0.0 0.0 0.00 0.00 0.00 98 1013.5
20260505111022 10 187 0.0 0.0 0.00 0.00 0.00 98 1013.6
20260505110519 10 191 0.0 0.0 0.00 0.00 0.00 98 1013.5
20260505101951 9 200 0.0 0.0 0.00 0.00 0.00 98 1013.4
20260505101449 9 198 0.0 1.6 0.00 0.00 0.00 98 1013.3
20260505100945 9 196 0.0 0.0 0.00 0.00 0.00 98 1013.1
20260505100443 10 199 0.0 0.0 0.00 0.00 0.00 98 1013.1
20260505095938 10 200 0.0 1.6 0.00 0.00 0.00 97 1012.9
20260505095436 10 202 1.6 1.6 0.00 0.00 0.00 97 1012.9
20260505094932 10 197 0.0 0.0 0.00 0.00 0.00 97 1012.8
20260505094429 10 202 0.0 0.0 0.00 0.00 0.00 97 1012.7
20260505093925 10 203 0.0 0.0 0.00 0.00 0.00 97 1012.7
20260505093422 10 212 0.0 0.0 0.00 0.00 0.00 97 1012.6
20260505092919 10 212 0.0 0.0 0.00 0.00 0.00 97 1012.4
20260505092417 10 220 0.0 0.0 0.00 0.00 0.00 96 1012.4
20260505091914 10 278 1.6 1.6 0.00 0.00 0.00 96 1012.3
20260505091412 10 220 0.0 0.0 0.00 0.00 0.00 96 1012.2
20260505090909 10 201 0.0 0.0 0.00 0.00 0.00 97 1012.3
20260505090408 10 217 0.0 0.0 0.00 0.00 0.00 96 1012.0
20260505085904 10 200 0.0 0.0 0.00 0.00 0.00 97 1012.1
20260505085402 10 217 0.0 0.0 0.00 0.00 0.00 97 1012.3
20260505084900 10 220 0.0 0.0 0.00 0.00 0.00 97 1012.1
20260505084358 10 219 0.0 0.0 0.00 0.00 0.00 97 1012.3
20260505083855 10 238 0.0 0.0 0.00 0.00 0.00 98 1012.2
20260505083353 10 194 0.0 0.0 0.00 0.00 0.00 99 1012.0
20260505082849 10 215 0.0 0.0 0.00 0.00 0.00 99 1012.1
20260505082345 10 202 0.0 0.0 0.00 0.00 0.00 99 1012.1
20260505081842 10 201 0.0 0.0 0.00 0.00 0.00 99 1011.9
20260505081339 10 194 0.0 0.0 0.00 0.00 0.00 99 1012.1
20260505080835 9 190 0.0 0.0 0.00 0.00 0.00 99 1012.2
20260505080331 9 193 0.0 0.0 0.00 0.00 0.00 99 1012.0
20260505075827 9 189 0.0 0.0 0.00 0.00 0.00 99 1011.8
20260505075324 9 172 0.0 1.6 0.00 0.00 0.00 99 1011.8
20260505074821 9 199 0.0 1.6 0.00 0.00 0.00 99 1011.7
20260505074319 9 193 0.0 0.0 0.00 0.00 0.00 99 1012.0
20260505073816 9 182 0.0 3.2 0.00 0.00 0.00 99 1011.7
20260505073314 9 200 0.0 1.6 0.00 0.00 0.00 99 1011.8
20260505072810 9 190 0.0 1.6 0.00 0.00 0.00 99 1011.7
20260505072306 9 191 0.0 0.0 0.00 0.00 0.00 99 1011.8
20260505071802 9 198 0.0 1.6 0.00 0.00 0.00 99 1011.7
20260505071259 9 225 0.0 3.2 0.00 0.00 0.00 99 1011.9
20260505070757 9 197 0.0 0.0 0.00 0.00 0.00 99 1011.8
20260505070254 9 203 0.0 0.0 0.00 0.00 0.00 99 1011.9
20260505065748 9 202 0.0 0.0 0.00 0.00 0.00 99 1011.9
20260505065246 9 195 0.0 0.0 0.00 0.00 0.00 99 1011.8
20260505064743 9 197 0.0 1.6 0.00 0.00 0.00 99 1011.8
20260505064240 9 197 0.0 1.6 0.00 0.00 0.00 99 1012.0
20260505063738 9 193 0.0 0.0 0.00 0.00 0.00 99 1011.9
20260505063234 10 188 0.0 0.0 0.00 0.00 0.00 99 1011.9
20260505062730 9 191 0.0 0.0 0.00 0.00 0.00 99 1012.1
20260505062228 9 186 0.0 0.0 0.00 0.00 0.00 99 1012.0
20260505061725 10 190 0.0 1.6 0.00 0.00 0.00 99 1012.0
20260505061223 10 184 0.0 0.0 0.00 0.00 0.00 99 1012.0
20260505060720 10 184 0.0 0.0 0.00 0.00 0.00 99 1011.9
20260505060217 10 200 0.0 0.0 0.00 0.00 0.00 99 1012.1
20260505055712 10 203 0.0 0.0 0.00 0.00 0.00 99 1012.1
20260505055209 10 190 0.0 0.0 0.00 0.00 0.00 99 1012.1
20260505054706 10 181 0.0 0.0 0.00 0.00 0.00 99 1012.0
20260505054204 10 193 0.0 0.0 0.00 0.00 0.00 99 1012.1
20260505053702 10 197 0.0 0.0 0.00 0.00 0.00 99 1012.0
20260505053158 10 182 0.0 1.6 0.00 0.00 0.00 99 1011.8
20260505052655 10 194 0.0 0.0 0.00 0.00 0.00 99 1012.0
20260505052152 10 190 0.0 0.0 0.00 0.00 0.00 99 1012.0
20260505051649 10 188 0.0 0.0 0.00 0.00 0.00 99 1012.1
20260505051147 10 188 0.0 0.0 0.00 0.00 0.00 99 1012.0
20260505050645 10 191 0.0 0.0 0.00 0.00 0.00 99 1011.8
20260505050143 11 191 0.0 0.0 0.00 0.00 0.00 99 1011.7
20260505041612 11 192 0.0 0.0 0.00 0.00 0.00 99 1011.4
20260505041110 11 192 0.0 0.0 0.00 0.00 0.00 99 1011.5
20260505040607 10 192 0.0 0.0 0.00 0.00 0.00 99 1011.3
20260505040104 10 192 0.0 0.0 0.00 0.00 0.00 99 1011.3
20260505035600 10 192 0.0 0.0 0.00 0.00 0.00 99 1011.2
20260505035057 10 192 0.0 0.0 0.00 0.00 0.00 99 1011.2
20260505034553 10 192 0.0 0.0 0.00 0.00 0.00 98 1011.2
20260505034050 10 197 0.0 0.0 0.00 0.00 0.00 98 1011.2
20260505033547 10 199 0.0 0.0 0.00 0.00 0.00 98 1011.2
20260505033045 10 197 0.0 0.0 0.00 0.00 0.00 98 1011.1
20260505032543 10 194 0.0 0.0 0.00 0.00 0.00 98 1011.3
20260505032039 10 198 0.0 0.0 0.00 0.00 0.00 98 1011.5
20260505031537 10 197 0.0 1.6 0.00 0.00 0.00 98 1011.3
20260505031033 10 211 1.6 1.6 0.00 0.00 0.00 98 1011.4
20260505030530 10 192 0.0 1.6 0.00 0.00 0.00 98 1011.5
20260505030026 11 197 1.6 1.6 0.00 0.00 0.00 98 1011.3
20260505025522 11 200 0.0 0.0 0.00 0.00 0.00 98 1011.1
20260505025021 11 200 0.0 0.0 0.00 0.00 0.00 97 1011.2
20260505024518 11 197 0.0 0.0 0.00 0.00 0.00 97 1011.3
20260505024015 11 199 0.0 0.0 0.00 0.00 0.00 97 1011.3
20260505023511 11 200 0.0 1.6 0.00 0.00 0.00 97 1011.3
20260505023009 11 190 0.0 1.6 0.00 0.00 0.00 97 1011.2
20260505022507 11 204 0.0 0.0 0.00 0.00 0.00 97 1011.3
20260505022004 11 204 0.0 0.0 0.00 0.00 0.00 96 1011.1
20260505021500 11 198 0.0 1.6 0.00 0.00 0.00 96 1011.4
20260505020955 11 204 0.0 1.6 0.00 0.00 0.00 96 1011.3
20260505020451 11 195 1.6 1.6 0.00 0.00 0.00 95 1011.3
20260505015948 11 188 0.0 0.0 0.00 0.00 0.00 95 1011.2
20260505015446 12 197 0.0 0.0 0.00 0.00 0.00 95 1011.2
20260505014942 12 187 0.0 0.0 0.00 0.00 0.00 95 1011.2
20260505014439 12 187 0.0 0.0 0.00 0.00 0.00 95 1011.1
20260505013937 12 186 0.0 0.0 0.00 0.00 0.00 95 1011.2
20260505013433 12 194 0.0 0.0 0.00 0.00 0.00 94 1011.3
20260505012931 12 196 0.0 1.6 0.00 0.00 0.00 94 1011.1
20260505012429 12 182 0.0 0.0 0.00 0.00 0.00 93 1010.9
20260505011925 12 203 0.0 0.0 0.00 0.00 0.00 93 1011.0
20260505011422 12 200 1.6 3.2 0.00 0.00 0.00 92 1011.1
20260505010918 13 191 0.0 0.0 0.00 0.00 0.00 91 1011.0
20260505010414 13 202 0.0 0.0 0.00 0.00 0.00 92 1011.1
20260505005910 13 198 0.0 0.0 0.00 0.00 0.00 91 1011.1
20260505005407 13 201 0.0 0.0 0.00 0.00 0.00 90 1011.0
20260505004905 13 205 0.0 0.0 0.00 0.00 0.00 90 1010.9
20260505004401 13 206 0.0 1.6 0.00 0.00 0.00 89 1010.8
20260505003858 14 204 1.6 1.6 0.00 0.00 0.00 88 1010.8
20260505003355 14 205 0.0 0.0 0.00 0.00 0.00 87 1010.9
20260505002852 15 203 1.6 1.6 0.00 0.00 0.00 86 1011.0
20260505002348 15 215 0.0 0.0 0.00 0.00 0.00 84 1011.1
20260505001847 15 217 0.0 0.0 0.00 0.00 0.00 84 1011.2
20260505001344 16 211 0.0 0.0 0.00 0.00 0.00 82 1011.2
20260505000841 16 212 0.0 0.0 0.00 0.00 0.00 81 1011.2
20260505000338 16 217 0.0 0.0 0.00 0.00 0.00 80 1011.3
20260504235835 17 217 0.0 0.0 0.00 0.00 0.00 78 1011.2
20260504235332 17 220 0.0 0.0 0.00 0.00 0.00 78 1010.9
20260504234828 17 215 0.0 1.6 0.00 0.00 0.00 77 1011.1
20260504234326 17 213 0.0 1.6 0.00 0.00 0.00 75 1011.0
20260504233822 18 216 0.0 0.0 0.00 0.00 0.00 76 1011.2
20260504233318 18 221 0.0 0.0 0.00 0.00 0.00 74 1011.2
20260504232815 18 223 0.0 0.0 0.00 0.00 0.00 72 1011.3
20260504232312 18 221 0.0 1.6 0.00 0.00 0.00 72 1011.3
20260504231809 18 223 0.0 0.0 0.00 0.00 0.00 70 1011.3
20260504231306 18 215 0.0 0.0 0.00 0.00 0.00 69 1011.4
20260504230802 18 205 0.0 0.0 0.00 0.00 0.00 68 1011.5
20260504230300 19 242 0.0 3.2 0.00 0.00 0.00 66 1011.8
20260504225758 20 251 0.0 3.2 0.00 0.00 0.00 64 1011.6
20260504225254 20 285 1.6 3.2 0.00 0.00 0.00 64 1011.7
20260504224752 21 267 1.6 1.6 0.00 0.00 0.00 61 1011.7
20260504224249 21 255 0.0 1.6 0.00 0.00 0.00 58 1011.9
20260504223745 22 278 1.6 1.6 0.00 0.00 0.00 55 1011.8
20260504223240 22 128 3.2 6.4 0.00 0.00 0.00 51 1011.9
20260504222738 23 152 3.2 4.8 0.00 0.00 0.00 51 1011.8
20260504222234 22 337 0.0 1.6 0.00 0.00 0.00 51 1011.7
20260504221732 22 251 1.6 3.2 0.00 0.00 0.00 52 1011.8
20260504221229 23 278 1.6 3.2 0.00 0.00 0.00 52 1011.8
20260504220725 22 151 3.2 3.2 0.00 0.00 0.00 50 1011.8
20260504220223 22 293 3.2 3.2 0.00 0.00 0.00 49 1011.9
20260504215720 22 148 1.6 3.2 0.00 0.00 0.00 53 1011.9
20260504215217 22 139 0.0 3.2 0.00 0.00 0.00 53 1011.9
20260504214712 22 159 1.6 4.8 0.00 0.00 0.00 51 1011.9
20260504214209 22 160 3.2 4.8 0.00 0.00 0.00 49 1011.9
20260504213706 23 121 1.6 4.8 0.00 0.00 0.00 47 1012.1
20260504213202 23 110 0.0 4.8 0.00 0.00 0.00 49 1012.0
20260504212659 22 116 1.6 4.8 0.00 0.00 0.00 50 1011.8
20260504212156 22 107 0.0 1.6 0.00 0.00 0.00 53 1012.0
20260504211653 21 193 3.2 4.8 0.00 0.00 0.00 55 1011.8
20260504211149 22 78 1.6 3.2 0.00 0.00 0.00 53 1011.7
20260504210647 20 199 0.0 1.6 0.00 0.00 0.00 63 1011.9
20260504210143 20 269 1.6 1.6 0.00 0.00 0.00 64 1011.9
20260504205641 20 245 0.0 1.6 0.00 0.00 0.00 66 1011.9
20260504205138 21 203 1.6 1.6 0.00 0.00 0.00 60 1011.9
20260504204637 21 179 0.0 1.6 0.00 0.00 0.00 53 1011.3
20260504204135 21 153 3.2 4.8 0.00 0.00 0.00 53 1011.4
20260504203634 22 144 1.6 3.2 0.00 0.00 0.00 51 1011.4
20260504203131 22 199 3.2 11.3 0.00 0.00 0.00 49 1011.5
20260504202631 22 61 1.6 6.4 0.00 0.00 0.00 49 1011.6
20260504202128 22 161 3.2 6.4 0.00 0.00 0.00 49 1011.4
20260504201625 22 135 3.2 9.7 0.00 0.00 0.00 52 1011.7
20260504201123 22 209 3.2 6.4 0.00 0.00 0.00 51 1011.6
20260504200620 22 107 1.6 6.4 0.00 0.00 0.00 50 1011.6
20260504200116 22 147 3.2 4.8 0.00 0.00 0.00 49 1012.0
20260504195612 23 191 1.6 11.3 0.00 0.00 0.00 50 1011.9
20260504195108 22 170 1.6 6.4 0.00 0.00 0.00 50 1011.9
20260504194605 22 158 4.8 6.4 0.00 0.00 0.00 54 1012.0
20260504194101 22 165 1.6 1.6 0.00 0.00 0.00 50 1012.1
20260504193558 22 136 1.6 4.8 0.00 0.00 0.00 52 1012.2
20260504193056 22 186 3.2 4.8 0.00 0.00 0.00 50 1012.1
20260504192554 22 141 0.0 4.8 0.00 0.00 0.00 55 1012.3
20260504192052 21 215 1.6 4.8 0.00 0.00 0.00 52 1012.3
20260504191550 22 149 3.2 4.8 0.00 0.00 0.00 51 1012.2
20260504191045 22 214 3.2 3.2 0.00 0.00 0.00 49 1012.2
20260504190542 22 67 1.6 3.2 0.00 0.00 0.00 52 1012.4
20260504190038 22 67 1.6 3.2 0.00 0.00 0.00 52 1012.4
20260504185536 22 65 3.2 3.2 0.00 0.00 0.00 53 1012.4
20260504185032 22 184 6.4 9.7 0.00 0.00 0.00 51 1012.8
20260504184527 22 214 1.6 4.8 0.00 0.00 0.00 50 1012.8
20260504184023 21 118 0.0 11.3 0.00 0.00 0.00 51 1012.7
20260504183520 22 145 3.2 4.8 0.00 0.00 0.00 49 1012.6
20260504183019 22 132 4.8 6.4 0.00 0.00 0.00 51 1012.6
20260504182515 21 242 1.6 4.8 0.00 0.00 0.00 56 1012.7
20260504182012 21 337 1.6 4.8 0.00 0.00 0.00 56 1012.7
20260504181509 21 173 1.6 4.8 0.00 0.00 0.00 55 1012.4
20260504181008 21 171 1.6 6.4 0.00 0.00 0.00 56 1012.3
20260504180506 20 208 3.2 6.4 0.00 0.00 0.00 56 1012.4
20260504180004 21 83 3.2 4.8 0.00 0.00 0.00 53 1012.8
20260504175501 20 199 3.2 4.8 0.00 0.00 0.00 57 1012.9
20260504174958 20 157 4.8 9.7 0.00 0.00 0.00 59 1013.0
20260504174456 20 92 1.6 4.8 0.00 0.00 0.00 57 1012.9
20260504173953 20 155 4.8 9.7 0.00 0.00 0.00 61 1013.4
20260504173449 20 183 4.8 4.8 0.00 0.00 0.00 60 1013.4
20260504172947 20 185 6.4 9.7 0.00 0.00 0.00 55 1013.4
20260504172443 20 227 8.0 11.3 0.00 0.00 0.00 57 1013.6
20260504171940 19 218 3.2 12.9 0.00 0.00 0.00 59 1013.7
20260504171437 19 124 3.2 11.3 0.00 0.00 0.00 57 1013.5
20260504170934 18 307 1.6 4.8 0.00 0.00 0.00 61 1013.7
20260504170430 18 176 8.0 12.9 0.00 0.00 0.00 56 1013.8
20260504160349 17 217 4.8 6.4 0.00 0.00 0.00 62 1014.8